Find Starlink 31776

NORAD ID: 59603 Int'l Des: 2024-080 Owner: SPXS Country: US Constellation: starlink operational
LEOCIRCULAR

Current View

Loading 3D Globe...

About Starlink 31776

Starlink 31776 (NORAD 59603) is a starlink constellation satellite (v2 mini) launched Apr 28, 2024 by SPXS of US. It operates in LEO, CIRCULAR orbit with a mass of 730.00 kg.

About Starlink 31776

Description loading...

Upcoming Passes

Passes for default location (London). Set your location on the main map for personalized predictions.

Altitude History

Loading altitude history...

Two-Line Element Set

1 59603U 24080C 26171.37265808 .00000340 00000-0 21870-4 0 9992
2 59603 43.0009 181.7305 0001130 263.1347 96.9376 15.27579482120190
Epoch: Jun 20, 2026 • Age: 36 hours

Current Status

Altitude 488.8 km
Velocity 7.62 km/s
Sub-Earth Point -25.30°S, 80.09°W
Launch Date Apr 28, 2024
Age 2.1 years
Type internet

Technical Details

Classification Payload
Mass 730.00 kg
Dry Mass 700.00 kg
Total Mass 730.00 kg
Length 0.30 m
Diameter 4.10 m
Span 29.00 m
Shape Box + pan
Manufacturer SPXS
Bus Type Starlink V2M
Phase Status In Orbit
Owner/State SPXS/US

Most Searched